Weather History for KONP - December, 2012

Change the Weather History Date:

Monday, December 31, 2012

  Actual Average (KEUG) Record (KEUG)
Temperature  
Mean Temperature 38 °F 39 °F  
Max Temperature 42 °F 45 °F 62 °F (1996)
Min Temperature 33 °F 34 °F 10 °F (1978)
Degree Days  
Heating Degree Days 28 26  
Month to date heating degree days 787  
Since 1 July heating degree days 1957  
Cooling Degree Days 0 0  
Month to date cooling degree days 0  
Year to date cooling degree days 239  
Moisture  
Dew Point 35 °F    
Average Humidity 89    
Maximum Humidity 100    
Minimum Humidity 81    
Precipitation  
Precipitation 0.03 in 0.23 in 2.00 in (1893)
Month to date precipitation 7.83  
Year to date precipitation 46.10  
Sea Level Pressure  
Sea Level Pressure 30.28 in    
Wind  
Wind Speed 8 mph (East)    
Max Wind Speed 14 mph    
Max Gust Speed 18 mph    
Visibility 10 miles    
Events Rain    
T = Trace of Precipitation, MM = Missing Value Source: NWS Daily Summary

Daily Weather History Graph

Daily Weather History Graph

Search for Another Location

Airport or City:

Trip Planner

Search our weather history database for the weather conditions in past years. The results will help you decide how hot, cold, wet, or windy it might be!

Date:

Astronomy

Dec. 31, 2012 Rise Set
Actual Time 7:52 AM PST 4:46 PM PST
Civil Twilight 7:19 AM PST 5:19 PM PST
Nautical Twilight 6:42 AM PST 5:56 PM PST
Astronomical Twilight 6:07 AM PST 6:31 PM PST
Moon 8:32 PM PST (12/31) 9:29 AM PST (12/31)
Length of Visible Light 10h 00m
Length of Day
8h 53m
Waning Gibbous, 89% of the Moon is Illuminated
Dec 31
Waning Gibbous
Jan 4
Last Quarter
Jan 11
New
Jan 18
First Quarter
Jan 26
Full

Hourly Weather History & Observations

Time (PST) Temp. Windchill Dew Point Humidity Pressure Visibility Wind Dir Wind Speed Gust Speed Precip Events Conditions
12:15 AM 35.6 °F 29.2 °F 32.0 °F 87% 30.27 in 10.0 mi East 8.1 mph 16.1 mph N/A   Clear
12:35 AM 35.6 °F 28.0 °F 32.0 °F 87% 30.27 in 10.0 mi East 10.4 mph - N/A   Scattered Clouds
12:55 AM 35.6 °F 28.6 °F 32.0 °F 87% 30.27 in 10.0 mi East 9.2 mph 16.1 mph N/A   Clear
1:15 AM 35.6 °F 29.9 °F 32.0 °F 87% 30.27 in 10.0 mi East 6.9 mph - N/A   Clear
1:35 AM 35.6 °F 29.9 °F 32.0 °F 87% 30.27 in 10.0 mi East 6.9 mph - N/A   Clear
1:55 AM 35.6 °F 28.6 °F 32.0 °F 87% 30.27 in 10.0 mi East 9.2 mph - N/A   Clear
2:15 AM 35.6 °F 28.0 °F 32.0 °F 87% 30.28 in 10.0 mi East 10.4 mph - N/A   Clear
2:35 AM 35.6 °F 29.2 °F 32.0 °F 87% 30.28 in 10.0 mi East 8.1 mph - N/A   Mostly Cloudy
2:55 AM 35.6 °F 28.0 °F 32.0 °F 87% 30.28 in 10.0 mi East 10.4 mph - N/A   Scattered Clouds
3:15 AM 35.6 °F 29.9 °F 32.0 °F 87% 30.29 in 10.0 mi East 6.9 mph - N/A   Clear
3:35 AM 33.8 °F 27.7 °F 32.0 °F 93% 30.28 in 10.0 mi East 6.9 mph - N/A   Scattered Clouds
3:55 AM 35.6 °F 27.5 °F 32.0 °F 87% 30.27 in 10.0 mi East 11.5 mph - N/A   Mostly Cloudy
4:15 AM 35.6 °F 28.6 °F 32.0 °F 87% 30.27 in 10.0 mi East 9.2 mph - N/A   Overcast
4:55 AM 33.8 °F 25.3 °F 32.0 °F 93% 30.25 in 10.0 mi East 11.5 mph - N/A   Scattered Clouds
5:15 AM 35.6 °F 28.6 °F 32.0 °F 87% 30.25 in 10.0 mi East 9.2 mph - N/A   Mostly Cloudy
5:35 AM 35.6 °F 27.1 °F 33.8 °F 93% 30.24 in 10.0 mi East 12.7 mph - N/A   Overcast
5:55 AM 35.6 °F 29.2 °F 33.8 °F 93% 30.23 in 10.0 mi East 8.1 mph - N/A   Mostly Cloudy
6:15 AM 35.6 °F - 33.8 °F 93% 30.24 in 10.0 mi Calm Calm - N/A   Overcast
6:35 AM 35.6 °F 32.8 °F 33.8 °F 93% 30.26 in 10.0 mi SE 3.5 mph - N/A   Overcast
6:55 AM 35.6 °F 29.2 °F 33.8 °F 93% - 10.0 mi East 8.1 mph - N/A   Overcast
7:15 AM 35.6 °F 29.2 °F 33.8 °F 93% 30.26 in 10.0 mi East 8.1 mph - N/A   Overcast
7:35 AM 35.6 °F 29.9 °F 33.8 °F 93% 30.26 in 10.0 mi East 6.9 mph - N/A   Overcast
7:55 AM 35.6 °F 29.9 °F 33.8 °F 93% 30.27 in 10.0 mi East 6.9 mph - N/A   Overcast
8:15 AM 35.6 °F 30.7 °F 33.8 °F 93% 30.27 in 10.0 mi East 5.8 mph - N/A   Overcast
8:35 AM 35.6 °F 29.2 °F 33.8 °F 93% 30.28 in 10.0 mi East 8.1 mph - N/A   Overcast
8:55 AM 37.4 °F 31.4 °F 33.8 °F 87% 30.29 in 10.0 mi East 8.1 mph - N/A   Overcast
9:15 AM 37.4 °F 30.8 °F 33.8 °F 87% 30.29 in 10.0 mi East 9.2 mph - N/A   Overcast
9:35 AM 37.4 °F 30.8 °F 33.8 °F 87% 30.29 in 10.0 mi East 9.2 mph - N/A   Overcast
9:55 AM 37.4 °F 31.4 °F 33.8 °F 87% 30.28 in 10.0 mi East 8.1 mph - N/A   Overcast
10:15 AM 37.4 °F 31.4 °F 33.8 °F 87% 30.29 in 10.0 mi East 8.1 mph - N/A   Overcast
10:35 AM 39.2 °F 34.2 °F 35.6 °F 87% 30.29 in 10.0 mi East 6.9 mph - N/A   Overcast
10:55 AM 39.2 °F 33.0 °F 35.6 °F 87% - 10.0 mi East 9.2 mph - N/A   Overcast
11:15 AM 41.0 °F 35.8 °F 35.6 °F 81% 30.28 in 10.0 mi East 8.1 mph - N/A   Overcast
11:35 AM 41.0 °F 37.1 °F 35.6 °F 81% 30.27 in 10.0 mi East 5.8 mph - N/A   Overcast
11:55 AM 42.8 °F 38.6 °F 37.4 °F 81% 30.27 in 10.0 mi East 6.9 mph - N/A Rain Light Rain
12:15 PM 41.0 °F 37.1 °F 37.4 °F 87% 30.26 in 10.0 mi East 5.8 mph - N/A   Overcast
12:35 PM 42.8 °F 39.3 °F 37.4 °F 81% 30.26 in 10.0 mi East 5.8 mph - N/A   Overcast
12:55 PM 42.8 °F 39.3 °F 37.4 °F 81% 30.25 in 10.0 mi East 5.8 mph - N/A   Light Drizzle
1:15 PM 41.0 °F 36.4 °F 37.4 °F 87% 30.25 in 10.0 mi East 6.9 mph - N/A Rain Light Rain
1:35 PM 42.8 °F 38.6 °F 37.4 °F 81% 30.24 in 10.0 mi East 6.9 mph - N/A   Overcast
1:55 PM 42.8 °F 38.0 °F 37.4 °F 81% 30.24 in 10.0 mi East 8.1 mph - N/A   Overcast
2:15 PM 42.8 °F 38.0 °F 37.4 °F 81% 30.24 in 10.0 mi East 8.1 mph - N/A Rain Light Rain
2:35 PM 42.8 °F 38.0 °F 39.2 °F 87% 30.25 in 5.0 mi ENE 8.1 mph - 0.02 in Rain Rain
2:55 PM 41.0 °F 36.4 °F 39.2 °F 93% 30.26 in 10.0 mi East 6.9 mph - 0.02 in Rain Light Rain
3:15 PM 41.0 °F 34.7 °F 39.2 °F 93% 30.26 in 10.0 mi ENE 10.4 mph - 0.01 in   Light Drizzle
3:35 PM 41.0 °F 35.8 °F 39.2 °F 93% 30.27 in 10.0 mi East 8.1 mph - 0.01 in   Overcast
3:55 PM 41.0 °F 35.8 °F 39.2 °F 93% 30.27 in 7.0 mi East 8.1 mph - 0.01 in   Overcast
4:15 PM 41.0 °F 35.2 °F 37.4 °F 87% 30.28 in 10.0 mi East 9.2 mph - N/A   Light Drizzle
4:35 PM 41.0 °F 35.2 °F 37.4 °F 87% 30.27 in 10.0 mi East 9.2 mph - N/A   Overcast
4:55 PM 39.2 °F 33.0 °F 37.4 °F 93% - 10.0 mi East 9.2 mph - N/A   Overcast
5:15 PM 39.2 °F 34.2 °F 37.4 °F 93% 30.27 in 10.0 mi East 6.9 mph - N/A   Overcast
5:35 PM 39.2 °F 34.2 °F 37.4 °F 93% 30.28 in 10.0 mi ENE 6.9 mph - N/A   Scattered Clouds
5:55 PM 37.4 °F 30.8 °F 35.6 °F 93% 30.29 in 10.0 mi East 9.2 mph - N/A   Clear
6:35 PM 37.4 °F 29.8 °F 35.6 °F 93% 30.30 in 10.0 mi East 11.5 mph - N/A   Mostly Cloudy
7:15 PM 37.4 °F 30.3 °F 35.6 °F 93% 30.31 in 10.0 mi ENE 10.4 mph - N/A   Overcast
7:35 PM 37.4 °F 29.8 °F 35.6 °F 93% 30.32 in 10.0 mi ENE 11.5 mph - N/A   Overcast
7:55 PM 37.4 °F 30.3 °F 35.6 °F 93% 30.32 in 10.0 mi ENE 10.4 mph - N/A   Overcast
8:15 PM 37.4 °F 30.8 °F 35.6 °F 93% 30.33 in 10.0 mi ENE 9.2 mph - N/A   Overcast
8:35 PM 37.4 °F 29.3 °F 35.6 °F 93% 30.33 in 10.0 mi East 12.7 mph - N/A   Overcast
8:55 PM 37.4 °F 28.9 °F 35.6 °F 93% 30.34 in 7.0 mi East 13.8 mph 18.4 mph N/A   Overcast
9:15 PM 37.4 °F 30.8 °F 35.6 °F 93% 30.35 in 10.0 mi East 9.2 mph - N/A   Overcast
9:35 PM 37.4 °F 31.4 °F 35.6 °F 93% 30.36 in 10.0 mi East 8.1 mph - N/A   Overcast
9:55 PM 37.4 °F 30.3 °F 35.6 °F 93% 30.35 in 10.0 mi East 10.4 mph - N/A   Mostly Cloudy
10:15 PM 37.4 °F 29.8 °F 35.6 °F 93% 30.35 in 10.0 mi East 11.5 mph - N/A   Mostly Cloudy
10:35 PM 35.6 °F 27.5 °F 35.6 °F 100% 30.36 in 10.0 mi East 11.5 mph - N/A   Scattered Clouds
10:55 PM 35.6 °F 28.6 °F 33.8 °F 93% 30.37 in 10.0 mi East 9.2 mph - N/A   Mostly Cloudy
11:15 PM 35.6 °F 28.6 °F 33.8 °F 93% 30.37 in 10.0 mi East 9.2 mph - N/A   Overcast
11:35 PM 35.6 °F 30.7 °F 33.8 °F 93% 30.37 in 10.0 mi East 5.8 mph - N/A   Mostly Cloudy